Regional Weather Roundup
Issued by NWS

Home | Current Version | Previous Version | Graphics & Text | Print | Product List | Glossary Off
Versions: 1 2 3 4 5 6 7 8 9 10 11 12 13 14 15 16 17 18 19 20 21 22 23 24 25 26 27 28 29 30 31 32 33 34 35 36 37 38 39 40 41 42 43 44 45 46 47 48 49 50

000
ASUS43 KTOP 252059
RWRKS

WEATHER ROUNDUP FOR KANSAS
NATIONAL WEATHER SERVICE GOODLAND KS
400 PM CDT SAT OCT 25 2014

NOTE:  "FAIR" INDICATES FEW OR NO CLOUDS BELOW 12,000 FEET WITH NO
SIGNIFICANT WEATHER AND/OR OBSTRUCTIONS TO VISIBILITY.

KSZ001>006-013>018-027>032-041>047-252200-
NORTHWEST KANSAS

CITY           SKY/WX    TMP DP  RH WIND       PRES   REMARKS
GOODLAND       SUNNY     85  37  18 S14G22    30.04F
HAYS           SUNNY     88  52  29 SE12      30.00F
HILL CITY      SUNNY     88  45  22 S8        30.00F
RUSSELL        SUNNY     87  53  31 S12       29.99F
$$

KSZ061>065-074>080-084>089-252200-
SOUTHWEST KANSAS

CITY           SKY/WX    TMP DP  RH WIND       PRES   REMARKS
DODGE CITY     SUNNY     89  41  18 S16G23    30.02F
ELKHART          N/A     89  38  16 SW10        N/A
GARDEN CITY    SUNNY     89  40  17 S13G24    30.01F
GREAT BEND     SUNNY     90  46  22 S15G22    29.99F
LIBERAL        SUNNY     90  45  20 SW15      30.03F
$$

KSZ066>073-081>083-090>101-252200-
SOUTHEAST KANSAS

CITY           SKY/WX    TMP DP  RH WIND       PRES   REMARKS
CHANUTE        SUNNY     84  65  52 SW8       30.02S
COFFEYVILLE    SUNNY     84  65  52 S7        30.02S
HUTCHINSON     SUNNY     90  57  32 S13       30.01F
NEWTON         SUNNY     90  54  29 S9        30.04S
PARSONS        SUNNY     85  66  53 S7        30.03F
WICHITA INTL   SUNNY     90  54  29 S13       30.00F
WICHITA JABRA  SUNNY     89  54  30 S14       30.01S
WINFIELD       SUNNY     87  60  40 S13       30.02F
$$

KSZ007>012-019>026-033>040-048>060-102>105-252200-
NORTHEAST KANSAS

CITY           SKY/WX    TMP DP  RH WIND       PRES   REMARKS
CONCORDIA      SUNNY     82  58  43 VRB6      30.01F
EMPORIA        SUNNY     86  61  42 SE6       30.01S
LAWRENCE       SUNNY     80  59  48 E6        30.02F
MANHATTAN      SUNNY     85  64  49 N8        29.99F
OLATHE IND     SUNNY     80  56  43 SE5       30.03F
OLATHE EXE     SUNNY     81  59  47 E5        30.02F
SALINA         SUNNY     90  56  31 S9        29.99F
TOPEKA BILLARD SUNNY     82  58  43 SE7       30.02F
TOPEKA FORBES  SUNNY     81  62  52 SE6       30.02F
$$



USA.gov is the U.S. government's official web portal to all federal, state and local government web resources and services.